Regional Weather Roundup
Issued by NWS

Home | Current Version | Previous Version | Graphics & Text | Print | Product List | Glossary Off
Versions: 1 2 3 4 5 6 7 8 9 10 11 12 13 14 15 16 17 18 19 20 21 22 23 24 25 26 27 28 29 30 31 32 33 34 35 36 37 38 39 40 41 42 43 44 45 46 47 48 49 50

000
ASUS43 KMKX 260911
RWRWI

WISCONSIN REGIONAL WEATHER ROUNDUP
NATIONAL WEATHER SERVICE MILWAUKEE/SULLIVAN WI
300 AM CST WED NOV 26 2014

NOTE: "FAIR" INDICATES FEW OR NO CLOUDS BELOW 12,000 FEET WITH NO
SIGNIFICANT WEATHER AND/OR OBSTRUCTIONS TO VISIBILITY.

WIZ001-002-006>008-014>016-023>028-261000-
NORTHWEST WISCONSIN

CITY           SKY/WX    TMP DP  RH WIND       PRES   REMARKS
SUPERIOR ARPT  CLOUDY    20  16  84 CALM      30.12S
ASHLAND        CLOUDY    18  15  88 CALM      30.13S
HAYWARD        CLOUDY    20  15  81 CALM      30.08S
SIREN          CLOUDY    22  17  80 E3        30.08R
CUMBERLAND     CLOUDY    21  18  86 E3        30.06R
RICE LAKE      CLOUDY    22  17  81 E5        30.09R WCI  16
CHETEK         CLOUDY    22  17  80 CALM      30.07S
LADYSMITH      CLOUDY    22  18  85 E5        30.09F WCI  15
EAU CLAIRE     CLOUDY    22  15  75 E5        30.08R WCI  16
MENOMONIE      CLOUDY    23  17  77 E7        30.07S WCI  14
NEW RICHMOND   CLOUDY    23  16  74 E6        30.06R WCI  15
OSCEOLA        CLOUDY    24  17  75 E5        30.09R WCI  18
$$

WIZ003>005-009-010-017-018-261000-
NORTH CENTRAL WISCONSIN

CITY           SKY/WX    TMP DP  RH WIND       PRES   REMARKS
MANITOWISH WTR CLOUDY    13  11  93 CALM      30.07F
ARBOR VITAE    CLOUDY    17  14  89 CALM      30.07F
WOODRUFF       CLOUDY    17  14  89 CALM      30.07F
RHINELANDER    CLOUDY    11   8  88 CALM      30.09R
EAGLE RIVER    CLOUDY    11   7  85 CALM      30.08S
LAND O LAKES   CLOUDY     1  -3  85 CALM      30.09S
PHILLIPS       CLOUDY    17  14  89 CALM      30.08R
TOMAHAWK       CLOUDY    14  11  90 CALM      30.09F
MEDFORD        CLOUDY    18  15  88 E6        30.08S WCI  10
MERRILL        CLOUDY    13  11  92 CALM      30.10S
$$

WIZ029-030-035-036-043>047-261000-
CENTRAL WISCONSIN

CITY           SKY/WX    TMP DP  RH WIND       PRES   REMARKS
WAUSAU         CLOUDY    15  11  83 CALM      30.11R
MOSINEE        CLOUDY    16  16 100 CALM      30.12R
MARSHFIELD     CLOUDY    19  15  84 E5        30.10R WCI  12
STEVENS POINT  CLOUDY    14  12  93 CALM      30.13R
WAUPACA        CLOUDY    16  13  88 E5        30.15F WCI   9
WAUTOMA        PTCLDY     4   0  83 CALM      30.15F
WISC RAPIDS    CLOUDY    17  12  80 CALM      30.13S
CAMP DOUGLAS   CLOUDY    12  11  98 SE2       30.11F
$$

WIZ011>013-019>022-031-037>040-048>050-261000-
NORTHEAST WISCONSIN

CITY           SKY/WX    TMP DP  RH WIND       PRES   REMARKS
ANTIGO         CLOUDY    13  12  94 S5        30.08F WCI   5
SHAWANO        CLOUDY    14  11  88 CALM      30.16F
OCONTO         CLEAR      6   4  91 CALM      30.18F
STURGEON BAY   CLOUDY    21  14  73 S6        30.18S WCI  14
GREEN BAY      CLOUDY    15  13  91 CALM      30.17F
MANITOWOC      CLOUDY    19  16  88 CALM      30.20R
APPLETON       PTCLDY    14  14 100 CALM      30.16S
CLINTONVILLE   CLOUDY    12  10  92 CALM      30.15F
OSHKOSH        CLEAR     11   7  84 S3        30.16S
$$

WIZ032>034-041-042-053>061-261000-
SOUTHWEST WISCONSIN

CITY           SKY/WX    TMP DP  RH WIND       PRES   REMARKS
LA CROSSE      MOCLDY    20  14  77 SE7       30.09F WCI  11
SPARTA         CLOUDY    18  15  87 CALM      30.11S
VIROQUA        MOCLDY    15  14  95 SE8       30.05F WCI   4
BOSCOBEL       MOCLDY    13   9  84 CALM      30.13S
PRAIRIE DU CHI MOCLDY    16  12  86 E5        30.10S WCI   8
PLATTEVILLE    MOCLDY    13  11  91 CALM      30.11S
$$

WIZ056-057-062-063-064-067-068-261000-
SOUTH CENTRAL WISCONSIN

CITY           SKY/WX    TMP DP  RH WIND       PRES   REMARKS
REEDSBURG      CLEAR      7   4  89 CALM      30.12S
BARABOO/DELLS  CLEAR      9   6  89 CALM      30.12S
LONE ROCK      PTCLDY     7   0  73 CALM      30.14S
MINERAL POINT  PTCLDY    18  14  86 SE6       30.09S WCI   9
MADISON        PTCLDY     9   5  84 CALM      30.15R
MIDDLETON      PTCLDY     5   1  82 CALM      30.14F
WATERTOWN      CLEAR      9   7  94 CALM      30.16R
MONROE         PTCLDY    12  10  92 E3        30.11S
JANESVILLE     PTCLDY    10   9  92 CALM      30.14S FOG
$$

WIZ051-052-058>065-066-070>072-261000-
SOUTHEAST WISCONSIN

CITY           SKY/WX    TMP DP  RH WIND       PRES   REMARKS
MILWAUKEE      CLEAR     15  11  83 SE5       30.17F WCI   8
WAUKESHA       CLEAR      9   7  92 CALM      30.16S FOG
MILWAUKEE/TIMM CLEAR     18  14  86 CALM      30.18S
RACINE         CLEAR     14  11  87 CALM      30.19F FOG
BURLINGTON     CLEAR      6   4  92 CALM      30.15F FOG
KENOSHA        FAIR      10   9  95 CALM      30.17F FOG
FOND DU LAC    CLEAR      9   4  80 CALM      30.17R
SHEBOYGAN      CLOUDY    19  15  84 NW5       30.17S WCI  12
WEST BEND      CLOUDY    19  16  86 CALM      30.16S
JUNEAU         CLEAR     12  10  91 E5        30.16R FOG     WCI   4
$$

LSZ147-162-261000-
LAKE SUPERIOR

STATION/POSITION TIME  TEMP    WIND        PRES    WAVE
                       AIR SEA DIR/SP/G            HT/PER
                 (UTC) (F)     (DEG/KT/KT) (MB)    (FT/S)
DEVILS ISLAND    0900   24     230/  8/ 10 1021.1R
PORT WING        0800   19     130/  2/  4 1020.3R
SAXON HARBOR     0840   18     200/  2/  5 1020.3R
$$

LMZ867-665-643>646-261000-
LAKE MICHIGAN

STATION/POSITION TIME  TEMP    WIND        PRES    WAVE
                       AIR SEA DIR/SP/G            HT/PER
                 (UTC) (F)     (DEG/KT/KT) (MB)    (FT/S)
CHAMBERS ISLAND  0800   22     230/  3/  7 1022.4R
N MID LAKE BUOY  0850   29 42  270/  6/ 10 1022.4F   1/ 3
NORTHPORT PIER   0805   24     180/  3/  8 1022.4R
SISTER BAY       0828             CALM       N/A
ALGOMA LAKESHORE 0828             CALM       N/A
KEWAUNEE LAKESHO 0800   20      CALM  /  1 1021.5R
SHEBOYGAN LAKESH 0900   22 36  320/  5/  6 1023.2F
PORT WASHINGTON  0800   21     250/  3/  6 1023.4
MILWAUKEE LAKESH 0800   21     230/  4/  6   N/A
S MID LAKE BUOY  0850   28 42  260/  8/ 12 1022.9S   2/ 5
KENOSHA   LAKESH 0900   18      CALM  /  2 1021.7F
$$

TC  - TEMPERATURE IN CELSIUS
VSB - VISIBILITY IN STATUTE MILES
WCI - WIND CHILL INDEX
HX  - HEAT INDEX




USA.gov is the U.S. government's official web portal to all federal, state and local government web resources and services.